When you browse on this site, cookies collect data to enhance your experience and personalize the content and advertising you see.
Visit our Privacy Policy to learn more. By continuing to use the site, you agree to this use of cookies and data.
  • In Hungary
  • List of Countries
  • For 7 days
  • Water Temperature
  • Weather Map
  • News
  • Weather Widgets
  • user-avatar
    Login

    Hourly Weather Barakpur

    Today, 20 February, Thursday

    Time Temperature Precipitation Wind Pressure Humidity
    00:00 +22°C° 0 mm 1 mps 761 mmHg 69%
    01:00 +22°C° 0 mm 1 mps 760 mmHg 71%
    02:00 +20°C° 0 mm 2 mps 760 mmHg 73%
    03:00 +20°C° 0 mm 2 mps 760 mmHg 75%
    04:00 +21°C° 0 mm 1 mps 760 mmHg 77%
    05:00 +20°C° 0 mm 1 mps 760 mmHg 80%
    06:00 +20°C° 0 mm 1 mps 760 mmHg 90%
    07:00 +22°C° 0 mm 1 mps 761 mmHg 84%
    08:00 +23°C° 0 mm 1 mps 761 mmHg 78%
    09:00 +25°C° 0 mm 1 mps 762 mmHg 71%
    10:00 +27°C° 0 mm 1 mps 762 mmHg 59%
    11:00 +29°C° 0 mm 2 mps 761 mmHg 46%
    12:00 +31°C° 0 mm 1 mps 762 mmHg 31%
    13:00 +32°C° 0 mm 1 mps 761 mmHg 28%
    14:00 +32°C° 0 mm 1 mps 760 mmHg 25%
    15:00 +33°C° 0 mm 1 mps 759 mmHg 22%
    16:00 +31°C° 0 mm 1 mps 759 mmHg 25%
    17:00 +30°C° 0 mm 1 mps 759 mmHg 28%
    18:00 +29°C° 0 mm 1 mps 759 mmHg 31%
    19:00 +27°C° 0 mm 1 mps 760 mmHg 38%
    20:00 +26°C° 0 mm 2 mps 760 mmHg 44%
    21:00 +24°C° 0 mm 2 mps 761 mmHg 51%
    22:00 +24°C° 0 mm 2 mps 761 mmHg 53%
    23:00 +23°C° 0 mm 2 mps 761 mmHg 56%

    Tomorrow, 21 February, Friday

    Time Temperature Precipitation Wind Pressure Humidity
    00:00 +22°C° 0 mm 1 mps 761 mmHg 59%
    01:00 +22°C° 0 mm 1 mps 761 mmHg 61%
    02:00 +22°C° 0 mm 1 mps 761 mmHg 63%
    03:00 +21°C° 0 mm 1 mps 760 mmHg 65%
    04:00 +21°C° 0 mm 1 mps 760 mmHg 67%
    05:00 +20°C° 0 mm 1 mps 761 mmHg 70%
    06:00 +18°C° 0 mm 0 mps 761 mmHg 72%
    07:00 +20°C° 0 mm 0 mps 762 mmHg 65%
    08:00 +22°C° 0 mm 0 mps 762 mmHg 59%
    09:00 +24°C° 0 mm 0 mps 763 mmHg 52%
    10:00 +28°C° 0 mm 1 mps 763 mmHg 45%
    11:00 +30°C° 0 mm 1 mps 763 mmHg 37%
    12:00 +32°C° 0 mm 1 mps 763 mmHg 29%
    19:00 +28°C° 0 mm 1 mps 761 mmHg 33%
    20:00 +27°C° 0 mm 2 mps 762 mmHg 37%
    21:00 +25°C° 0 mm 2 mps 763 mmHg 41%
    22:00 +25°C° 0 mm 2 mps 762 mmHg 44%
    23:00 +24°C° 0 mm 1 mps 762 mmHg 47%

    Day after tomorrow, 22 February, Saturday

    Time Temperature Precipitation Wind Pressure Humidity
    00:00 +23°C° 0 mm 1 mps 762 mmHg 50%
    01:00 +23°C° 0 mm 1 mps 762 mmHg 51%
    02:00 +22°C° 0 mm 1 mps 762 mmHg 53%
    03:00 +22°C° 0 mm 1 mps 761 mmHg 54%
    04:00 +21°C° 0 mm 1 mps 761 mmHg 56%
    05:00 +21°C° 0 mm 1 mps 762 mmHg 57%
    06:00 +21°C° 0 mm 1 mps 762 mmHg 58%
    07:00 +23°C° 0 mm 1 mps 762 mmHg 52%
    08:00 +25°C° 0 mm 1 mps 763 mmHg 46%
    09:00 +27°C° 0 mm 2 mps 763 mmHg 40%
    10:00 +29°C° 0 mm 2 mps 763 mmHg 34%
    11:00 +31°C° 0 mm 2 mps 763 mmHg 29%
    12:00 +34°C° 0 mm 2 mps 762 mmHg 23%
    13:00 +35°C° 0 mm 2 mps 762 mmHg 22%
    14:00 +35°C° 0 mm 2 mps 761 mmHg 21%
    15:00 +36°C° 0 mm 3 mps 760 mmHg 20%
    16:00 +34°C° 0 mm 3 mps 760 mmHg 23%
    17:00 +33°C° 0 mm 3 mps 760 mmHg 27%
    18:00 +30°C° 0 mm 3 mps 760 mmHg 30%
    19:00 +29°C° 0 mm 3 mps 760 mmHg 32%
    20:00 +28°C° 0 mm 2 mps 761 mmHg 34%
    21:00 +27°C° 0 mm 2 mps 761 mmHg 36%
    22:00 +26°C° 0 mm 2 mps 761 mmHg 39%
    23:00 +25°C° 0 mm 2 mps 761 mmHg 41%

    23 February, Sunday

    Time Temperature Precipitation Wind Pressure Humidity
    00:00 +25°C° 0 mm 2 mps 761 mmHg 43%
    01:00 +24°C° 0 mm 1 mps 761 mmHg 45%
    02:00 +24°C° 0 mm 1 mps 760 mmHg 46%
    03:00 +23°C° 0 mm 1 mps 760 mmHg 47%
    04:00 +23°C° 0 mm 1 mps 760 mmHg 48%
    05:00 +23°C° 0 mm 1 mps 760 mmHg 49%
    06:00 +22°C° 0 mm 1 mps 760 mmHg 50%
    07:00 +24°C° 0 mm 1 mps 761 mmHg 46%
    08:00 +26°C° 0 mm 1 mps 761 mmHg 42%
    09:00 +28°C° 0 mm 1 mps 762 mmHg 38%
    10:00 +30°C° 0 mm 2 mps 762 mmHg 34%
    11:00 +32°C° 0 mm 2 mps 761 mmHg 31%
    12:00 +34°C° 0 mm 2 mps 761 mmHg 27%
    13:00 +35°C° 0 mm 2 mps 760 mmHg 25%
    14:00 +36°C° 0 mm 2 mps 759 mmHg 24%
    15:00 +36°C° 0 mm 2 mps 758 mmHg 23%
    16:00 +35°C° 0 mm 2 mps 758 mmHg 25%
    17:00 +34°C° 0 mm 2 mps 758 mmHg 27%
    18:00 +31°C° 0 mm 1 mps 758 mmHg 30%
    19:00 +30°C° 0 mm 2 mps 758 mmHg 33%
    20:00 +28°C° 0 mm 3 mps 759 mmHg 36%
    21:00 +27°C° 0 mm 3 mps 759 mmHg 39%
    22:00 +26°C° 0 mm 3 mps 759 mmHg 38%
    23:00 +25°C° 0 mm 2 mps 759 mmHg 37%

    24 February, Monday

    Time Temperature Precipitation Wind Pressure Humidity
    00:00 +24°C° 0 mm 1 mps 759 mmHg 36%
    01:00 +24°C° 0 mm 2 mps 759 mmHg 36%
    02:00 +23°C° 0 mm 2 mps 758 mmHg 37%
    03:00 +23°C° 0 mm 2 mps 758 mmHg 38%
    04:00 +23°C° 0 mm 2 mps 758 mmHg 43%
    05:00 +22°C° 0 mm 1 mps 758 mmHg 47%
    06:00 +22°C° 0 mm 1 mps 758 mmHg 52%
    07:00 +24°C° 0 mm 2 mps 759 mmHg 51%
    08:00 +25°C° 0 mm 2 mps 759 mmHg 49%
    09:00 +27°C° 0 mm 2 mps 760 mmHg 47%
    10:00 +29°C° 0 mm 2 mps 760 mmHg 41%
    11:00 +31°C° 0 mm 2 mps 759 mmHg 34%
    12:00 +33°C° 0 mm 1 mps 759 mmHg 27%
    13:00 +33°C° 0 mm 1 mps 758 mmHg 26%
    14:00 +35°C° 0 mm 2 mps 758 mmHg 25%
    15:00 +35°C° 0 mm 2 mps 757 mmHg 23%
    16:00 +34°C° 0 mm 2 mps 757 mmHg 26%
    17:00 +31°C° 0 mm 2 mps 757 mmHg 29%
    18:00 +30°C° 0 mm 3 mps 757 mmHg 31%
    19:00 +29°C° 0 mm 2 mps 757 mmHg 35%
    20:00 +28°C° 0 mm 2 mps 757 mmHg 38%
    21:00 +27°C° 0 mm 2 mps 758 mmHg 41%
    22:00 +26°C° 0 mm 2 mps 758 mmHg 49%
    23:00 +25°C° 0 mm 2 mps 758 mmHg 57%

    25 February, Tuesday

    Time Temperature Precipitation Wind Pressure Humidity
    00:00 +24°C° 0 mm 2 mps 758 mmHg 65%
    01:00 +24°C° 0 mm 2 mps 757 mmHg 67%
    02:00 +23°C° 0 mm 2 mps 757 mmHg 69%
    03:00 +23°C° 0 mm 2 mps 757 mmHg 71%
    04:00 +23°C° 0 mm 2 mps 757 mmHg 64%
    05:00 +23°C° 0 mm 2 mps 757 mmHg 58%
    06:00 +23°C° 0 mm 2 mps 757 mmHg 52%
    07:00 +24°C° 0 mm 3 mps 758 mmHg 50%
    08:00 +25°C° 0 mm 4 mps 759 mmHg 48%
    09:00 +27°C° 0 mm 6 mps 760 mmHg 46%
    10:00 +26°C° 0 mm 6 mps 760 mmHg 51%
    11:00 +26°C° 0 mm 6 mps 759 mmHg 56%
    12:00 +24°C° 0 mm 6 mps 759 mmHg 61%
    13:00 +25°C° 0 mm 5 mps 759 mmHg 60%
    14:00 +25°C° 0 mm 5 mps 758 mmHg 59%
    15:00 +25°C° 0 mm 5 mps 757 mmHg 59%
    16:00 +23°C° 0 mm 4 mps 757 mmHg 60%
    17:00 +24°C° 0 mm 3 mps 758 mmHg 60%
    18:00 +24°C° 0 mm 3 mps 758 mmHg 61%
    19:00 +23°C° 0 mm 2 mps 758 mmHg 62%
    20:00 +23°C° 0 mm 1 mps 758 mmHg 64%
    21:00 +22°C° 0 mm 1 mps 758 mmHg 65%
    22:00 +22°C° 0 mm 1 mps 758 mmHg 68%
    23:00 +21°C° 0 mm 1 mps 758 mmHg 70%
    Show more